CW8593 Weather Reports


Display with metric or nautical units.
time (UTC)temp
F
wind
direction
speed
MPH
gust
MPH
rain 1hr
in
rain 24hr
in
rain mn
in
humidity
%
barometer
mb
20141121020327 62 294 4.0 7.0 0.00 0.00 0.00 79 1020.1
20141121015326 62 309 2.0 5.0 0.00 0.00 0.00 79 1020.1
20141121013326 62 292 4.0 8.0 0.00 0.00 0.00 79 1020.2
20141121004327 62 298 5.0 8.0 0.00 0.00 0.00 80 1020.4
20141121002326 62 298 3.0 9.0 0.00 0.00 0.00 80 1020.4
20141121001328 62 299 3.0 8.0 0.00 0.00 0.00 80 1020.5
20141120233326 62 327 2.0 5.0 0.00 0.00 0.00 80 1020.7
20141120232326 62 311 2.0 7.0 0.00 0.00 0.00 80 1020.9
20141120230326 62 298 3.0 6.0 0.00 0.00 0.00 80 1021.1
20141120225326 62 298 1.0 7.0 0.00 0.00 0.00 80 1021.2
20141120224325 62 298 3.0 6.0 0.00 0.00 0.00 80 1021.2
20141120223325 62 291 2.0 8.0 0.00 0.00 0.00 80 1021.2
20141120222325 62 286 5.0 8.0 0.00 0.00 0.00 80 1021.1
20141120221326 62 294 4.0 7.0 0.00 0.00 0.00 80 1021.1
20141120220328 62 298 3.0 7.0 0.00 0.00 0.00 80 1021.2
20141120215327 62 298 5.0 7.0 0.00 0.00 0.00 80 1021.3
20141120214327 62 294 4.0 7.0 0.00 0.00 0.00 80 1021.2
20141120213326 62 342 1.0 5.0 0.00 0.00 0.00 80 1021.2
20141120212326 62 342 0.0 3.0 0.00 0.00 0.00 81 1021.2
20141120211325 62 342 1.0 3.0 0.00 0.00 0.00 81 1020.9
20141120210326 62 342 1.0 3.0 0.00 0.00 0.00 81 1020.9
20141120205326 62 342 1.0 5.0 0.00 0.00 0.00 81 1020.8
20141120204327 62 342 2.0 3.0 0.00 0.00 0.00 81 1020.7
20141120202326 62 355 2.0 6.0 0.00 0.00 0.00 81 1020.4
20141120201328 62 355 3.0 8.0 0.00 0.00 0.00 81 1020.4
20141120195325 62 9 3.0 6.0 0.00 0.00 0.00 80 1020.4
20141120193327 62 37 3.0 3.0 0.00 0.00 0.00 79 1020.6
20141120191326 63 54 1.0 3.0 0.00 0.00 0.00 79 1020.6
20141120190326 63 54 1.0 3.0 0.00 0.00 0.00 78 1020.7
20141120184326 63 54 0.0 1.0 0.00 0.00 0.00 78 1020.8
20141120183326 63 53 1.0 3.0 0.00 0.00 0.00 78 1020.7
20141120182325 63 54 0.0 3.0 0.00 0.00 0.00 78 1020.6
20141120180326 63 55 0.0 2.0 0.00 0.00 0.00 78 1020.5
20141120175326 63 55 1.0 3.0 0.00 0.00 0.00 77 1020.5
20141120174326 63 55 2.0 3.0 0.00 0.00 0.00 77 1020.5
20141120173326 63 55 0.0 2.0 0.00 0.00 0.00 76 1020.5
20141120171326 63 55 2.0 3.0 0.00 0.00 0.00 76 1020.3
20141120170326 63 64 1.0 3.0 0.00 0.00 0.00 76 1020.2
20141120165326 64 71 2.0 6.0 0.00 0.00 0.00 75 1020.2
20141120164327 64 42 1.0 3.0 0.00 0.00 0.00 75 1020.1
20141120162326 64 26 2.0 6.0 0.00 0.00 0.00 75 1019.9
20141120154325 64 78 3.0 8.0 0.00 0.00 0.00 76 1019.8
20141120151325 65 98 5.0 9.0 0.00 0.00 0.00 73 1019.7
20141120150325 65 28 2.0 5.0 0.00 0.00 0.00 72 1019.9
20141120145325 65 92 3.0 8.0 0.00 0.00 0.00 71 1019.9
20141120144324 65 92 3.0 8.0 0.00 0.00 0.00 70 1019.9
20141120143325 65 99 0.0 6.0 0.00 0.00 0.00 69 1019.8
20141120141326 66 78 2.0 8.0 0.00 0.00 0.00 68 1019.9
20141120134325 66 68 1.0 7.0 0.00 0.00 0.00 68 1019.9
20141120133325 66 70 2.0 8.0 0.00 0.00 0.00 68 1020.0
20141120132324 66 76 2.0 8.0 0.00 0.00 0.00 68 1020.0
20141120131326 66 136 1.0 7.0 0.00 0.00 0.00 68 1020.2
20141120130326 66 84 1.0 8.0 0.00 0.00 0.00 68 1020.4
20141120125325 66 93 1.0 8.0 0.00 0.00 0.00 68 1020.4
20141120122327 65 103 2.0 6.0 0.00 0.00 0.00 68 1020.5
20141120121325 65 53 2.0 9.0 0.00 0.00 0.00 67 1020.6
20141120120325 66 84 2.0 8.0 0.00 0.00 0.00 66 1020.7
20141120114325 65 30 2.0 8.0 0.00 0.00 0.00 67 1020.9
20141120113325 65 36 3.0 7.0 0.00 0.00 0.00 67 1020.9
20141120112325 65 92 3.0 8.0 0.00 0.00 0.00 68 1020.9
20141120111326 65 96 2.0 7.0 0.00 0.00 0.00 67 1021.1
20141120110326 66 59 2.0 8.0 0.00 0.00 0.00 66 1021.1
20141120105326 66 350 0.0 2.0 0.00 0.00 0.00 68 1021.1
20141120104325 64 350 0.0 3.0 0.00 0.00 0.00 70 1021.3
20141120100325 63 309 0.0 3.0 0.00 0.00 0.00 76 1021.5
20141120094326 63 309 0.0 1.0 0.00 0.00 0.00 77 1021.4
20141120093325 62 309 0.0 1.0 0.00 0.00 0.00 78 1021.4
20141120090326 62 309 0.0 3.0 0.00 0.00 0.00 80 1021.4
20141120085325 61 309 1.0 3.0 0.00 0.00 0.00 80 1021.3
20141120082325 60 309 1.0 3.0 0.00 0.00 0.00 81 1021.2
20141120074325 58 298 1.0 3.0 0.00 0.00 0.00 85 1020.9
20141120070325 55 298 0.0 1.0 0.00 0.00 0.00 86 1020.3
20141120065324 55 298 0.0 0.0 0.00 0.00 0.00 86 1020.2
20141120062325 55 298 0.0 1.0 0.00 0.00 0.00 85 1019.8
20141120061324 55 298 0.0 0.0 0.00 0.00 0.00 84 1019.8
20141120060325 56 298 0.0 0.0 0.00 0.00 0.00 83 1019.8
20141120055324 56 298 0.0 0.0 0.00 0.00 0.00 82 1019.8
20141120054324 56 298 0.0 0.0 0.00 0.00 0.00 82 1019.8
20141120053324 57 298 0.0 0.0 0.00 0.00 0.00 81 1019.8
20141120052324 57 298 0.0 3.0 0.00 0.00 0.00 80 1019.8
20141120051325 57 298 0.0 7.0 0.00 0.00 0.00 80 1019.8
20141120045328 58 304 1.0 6.0 0.00 0.00 0.00 79 1019.8
20141120044325 58 304 2.0 6.0 0.00 0.00 0.00 79 1019.9
20141120042325 58 298 1.0 7.0 0.00 0.00 0.00 78 1019.9
20141120041325 58 298 3.0 7.0 0.00 0.00 0.00 78 1019.9
20141120040324 58 313 2.0 6.0 0.00 0.00 0.00 78 1020.0
20141120035324 58 302 2.0 6.0 0.00 0.00 0.00 78 1019.9
20141120034326 57 303 3.0 9.0 0.00 0.00 0.00 78 1020.0
20141120032326 57 325 3.0 6.0 0.00 0.00 0.00 77 1020.0
20141120031325 58 326 3.0 7.0 0.00 0.00 0.00 77 1020.2
20141120030326 58 300 2.0 8.0 0.00 0.00 0.00 77 1020.2
20141120025324 58 302 3.0 7.0 0.00 0.00 0.00 77 1020.2
20141120024326 58 308 4.0 9.0 0.00 0.00 0.00 77 1020.2
20141120023325 58 317 1.0 7.0 0.00 0.00 0.00 76 1020.2